Vertical_Velocity
-2 -1 -2 2 1 4 11 1 1 -5 -8 -11 -4 -1 4 14 -16 -34 14 71 -1 10 -3 -3 14 -4 5 10 -1 -2 -3 -7 3 -5 -2 -2 2 -4 -3 -2 -1 3 -1
-4 -5 -1 -8 -3 -6 -5 -22 -28 -7 -10 -11 -11 -3 -1 1 -9 -7 1 35 9 1 10 -4 3 -7 4 4 0 -4 -4 -9 -0 -0 -3 1 3 -3 -0 -1 -4 -5 2
-7 -3 -5 -12 -9 -1 -6 -2 2 -12 4 -6 -2 1 -17 5 2 9 -14 96 4 3 -7 3 -3 7 1 -0 -1 2 -4 -13 3 2 2 -3 -1 0 0 3 1 2 2
2 -2 -2 -6 -7 -3 10 14 27 29 23 3 1 11 0 -16 -4 7 7 44 120 -6 3 2 2 -5 -4 1 -0 -1 -6 -10 2 -3 10 2 -2 0 -4 5 1 -1 -1
-0 -0 8 2 1 5 3 11 26 19 -6 3 1 4 -9 0 1 11 -18 24 48 5 10 3 -2 3 8 5 -1 -3 4 1 -5 2 0 7 3 -0 2 -4 -2 1 -0
2 -1 2 7 11 4 19 1 2 -2 -4 -4 4 5 7 4 -7 -9 -12 -7 -16 40 13 3 3 -2 -4 4 11 15 10 5 1 -2 1 -6 8 1 2 -6 -7 1 -10
1 1 0 -1 -2 9 10 18 11 9 11 -8 18 12 1 1 2 18 46 25 30 14 35 5 -1 5 23 10 -4 -5 15 -7 0 -0 5 4 -6 5 -4 2 -1 -5 -2
-0 -0 2 0 -1 -4 -2 3 6 9 11 10 7 16 6 -5 -5 -21 10 7 44 29 61 19 12 -3 3 16 9 -1 -1 2 -0 -3 -3 7 -6 2 -2 -3 -3 -1 -1
1 -1 1 4 4 0 -4 -10 -13 11 12 16 2 -2 -14 -22 -14 -11 6 7 35 -9 10 45 20 21 -3 -1 -0 4 2 3 -5 4 -7 -0 -1 -2 0 -1 -1 -10 -0
-5 -2 -2 4 1 3 2 -1 6 9 7 8 10 -3 5 -5 3 16 14 20 13 18 22 -18 4 8 -2 -5 -8 -8 6 1 1 -9 -3 -3 -2 5 2 -2 -7 -4 -9
-3 -4 -7 -7 10 8 1 -1 7 3 10 9 6 5 0 -3 -0 -0 2 -4 -7 2 3 9 18 0 -7 -6 -9 2 3 7 -1 -0 -1 -6 -0 5 -1 1 -8 -0 -5
-4 -2 -3 -2 -16 0 9 12 0 5 -4 -10 -6 7 8 -10 -1 10 -6 -7 -4 -10 -12 -9 -6 -2 -2 3 -3 -2 11 2 0 3 3 -1 0 5 1 5 -1 -3 -6
-3 -4 -2 -4 11 -9 1 5 0 -11 -8 -1 6 1 -5 -5 -8 -7 -5 -3 -5 -7 -6 -5 -0 -0 10 4 3 4 2 5 3 3 1 -0 -0 -1 2 4 -3 -7 -11
3 -4 -5 -4 -7 -12 -11 -17 -4 -0 3 6 -4 -7 -6 -4 0 2 -3 -0 4 2 3 4 4 -3 -4 -1 -5 0 2 4 1 -1 4 -2 -1 0 5 1 -4 -1 -4
3 7 -2 -8 -1 -3 -2 -1 -5 -8 -5 4 6 5 4 1 -4 -2 -2 -2 -4 -3 -0 1 0 3 6 2 -3 -7 3 -3 -5 2 0 -2 -2 -1 3 -4 2 -1 -7
0 5 8 9 2 -3 0 3 5 -2 1 -5 -7 -3 -3 -9 -3 -4 -5 -4 1 3 3 1 -0 -0 -2 -2 -5 3 5 -6 -4 1 -4 3 -3 0 4 -6 1 -6 -2
-1 -3 -2 3 6 4 -3 -13 -5 -3 3 2 -0 -1 1 2 -3 -2 2 -4 -3 -7 -4 -3 -2 -0 -2 -1 2 -2 -6 -2 -0 -6 -1 2 0 5 6 -3 -5 -10 -5
1 0 -1 -2 -2 3 7 5 -2 -11 -8 -8 -9 -7 -4 -4 -0 2 -2 -2 -1 1 5 -3 -1 -3 -7 -9 -4 -1 -2 -2 -4 1 1 -5 -3 -3 1 -2 -4 1 0
-2 -1 0 1 -1 -3 -6 -6 1 2 1 4 -4 -7 -2 1 -0 1 -1 -1 -1 -0 -2 2 -3 -1 2 2 -6 -10 -2 -1 -3 -6 -4 -7 -5 -5 -2 -6 -4 -5 -0
-4 -4 -5 -5 -5 -5 -4 -4 -5 -5 -4 -3 5 13 7 9 7 0 -3 -4 -6 -8 -8 -0 -0 -6 -5 -5 -2 2 1 5 -7 -5 -5 -4 -10 -8 -5 -8 -10 -4 -2
-3 -5 -5 -5 -5 -6 -5 -4 -4 -5 -4 -3 -2 -4 -5 -6 -5 -2 -2 -3 -3 -4 -2 -2 -3 1 0 -2 -1 -3 -4 -6 1 -1 2 -3 -6 -4 -9 -14 -13 -8 -3
-4 -3 -3 -4 -5 -6 -7 -9 -9 -8 -9 -9 -9 -9 -9 -7 -7 -8 -7 -5 -3 -0 -0 -1 -0 -1 -3 -2 1 2 0 0 1 1 -1 -2 -3 -3 -5 -4 -4 -6 -7
-3 -3 -3 -4 -4 -6 -6 -4 -5 -6 -5 -7 -7 -7 -6 -8 -8 -7 -7 -5 -5 -5 -6 -6 -4 -3 -0 1 1 0 3 3 3 2 1 1 2 2 -0 0 -0 -1 -7
-3 -4 -3 -3 -5 -4 -6 -6 -4 -4 -4 -3 -5 -4 -5 -3 -5 -5 -6 -7 -7 -5 -4 -4 -3 -4 -3 -2 1 2 2 1 1 2 2 3 4 2 3 -0 -3 2 -1
-2 -2 -4 -4 -3 -4 -5 -7 -7 -5 -4 -5 -5 -5 -5 -6 -5 -6 -4 -5 -5 -4 -4 -4 -4 -4 -3 -3 -3 -2 -1 1 2 3 4 2 3 6 1 2 2 1 1
-4 -3 -2 -2 -2 -3 -3 -4 -4 -4 -5 -4 -6 -6 -5 -4 -4 -3 -4 -3 -6 -5 -3 -3 -3 -2 -2 -1 -2 -2 -1 0 2 2 3 4 3 3 3 3 2 0 1
Height
5576 5571 5567 5562 5558 5552 5547 5542 5537 5540 5543 5549 5557 5570 5585 5597 5604 5621 5622 5630 5640 5650 5657 5671 5675 5683 5685 5689 5693 5698 5702 5704 5707 5709 5708 5709 5709 5707 5709 5710 5711 5712 5714
5568 5563 5558 5554 5547 5540 5533 5529 5526 5523 5524 5526 5532 5557 5573 5583 5594 5603 5618 5626 5627 5632 5641 5650 5658 5666 5671 5677 5682 5686 5690 5692 5694 5699 5698 5699 5700 5700 5701 5702 5704 5707 5708
5563 5557 5550 5545 5539 5527 5523 5516 5508 5509 5511 5512 5523 5544 5558 5569 5583 5593 5601 5587 5617 5624 5631 5636 5648 5657 5662 5668 5670 5674 5678 5680 5682 5684 5689 5689 5689 5691 5691 5693 5696 5697 5697
5561 5555 5546 5540 5532 5522 5519 5513 5508 5511 5512 5516 5526 5536 5546 5556 5573 5580 5586 5602 5593 5616 5618 5627 5636 5645 5650 5654 5659 5662 5665 5667 5668 5672 5675 5678 5680 5682 5682 5683 5683 5683 5684
5559 5553 5547 5539 5530 5522 5520 5518 5513 5518 5519 5523 5527 5533 5538 5550 5564 5574 5585 5586 5588 5598 5606 5618 5625 5630 5632 5638 5645 5646 5652 5655 5656 5660 5663 5665 5667 5669 5670 5671 5672 5671 5672
5558 5550 5544 5538 5532 5526 5520 5520 5519 5521 5524 5525 5525 5527 5537 5546 5558 5566 5579 5582 5589 5583 5595 5604 5610 5615 5620 5625 5626 5630 5638 5642 5644 5647 5650 5653 5654 5655 5656 5657 5657 5659 5661
5556 5549 5543 5536 5529 5525 5522 5518 5514 5516 5520 5523 5522 5526 5533 5545 5555 5557 5562 5573 5575 5575 5584 5587 5595 5599 5608 5612 5615 5619 5622 5627 5628 5633 5636 5640 5642 5642 5642 5643 5645 5645 5646
5554 5549 5543 5538 5531 5527 5522 5519 5515 5514 5514 5517 5519 5522 5528 5537 5547 5552 5554 5558 5562 5565 5560 5572 5579 5589 5594 5596 5600 5603 5608 5613 5616 5616 5621 5626 5626 5627 5628 5629 5628 5629 5631
5549 5545 5540 5536 5534 5529 5523 5518 5516 5511 5509 5508 5512 5520 5526 5536 5540 5541 5542 5547 5548 5558 5558 5560 5566 5570 5577 5581 5586 5591 5597 5600 5603 5604 5609 5610 5611 5612 5613 5614 5614 5617 5619
5541 5538 5537 5533 5529 5527 5524 5518 5515 5511 5509 5513 5518 5525 5529 5530 5530 5530 5533 5537 5542 5546 5544 5549 5554 5559 5566 5572 5576 5580 5585 5587 5589 5590 5591 5594 5596 5598 5599 5599 5600 5603 5604
5533 5531 5529 5527 5522 5520 5518 5516 5513 5512 5511 5512 5514 5516 5518 5520 5523 5524 5526 5529 5531 5533 5535 5540 5544 5548 5556 5560 5564 5568 5570 5572 5573 5575 5577 5580 5583 5584 5585 5585 5586 5588 5590
5525 5523 5521 5519 5516 5512 5511 5510 5514 5515 5514 5513 5510 5509 5510 5513 5515 5514 5517 5521 5525 5527 5529 5532 5536 5539 5543 5546 5549 5553 5555 5557 5559 5561 5564 5566 5568 5568 5571 5572 5572 5574 5576
5515 5515 5514 5514 5511 5510 5509 5507 5505 5505 5505 5504 5504 5506 5507 5509 5511 5513 5515 5517 5520 5521 5522 5524 5526 5528 5530 5534 5536 5537 5539 5542 5544 5546 5549 5550 5552 5554 5555 5557 5559 5560 5562
5502 5502 5502 5502 5502 5503 5500 5500 5498 5498 5497 5498 5502 5504 5504 5505 5504 5505 5508 5510 5510 5511 5512 5514 5514 5515 5516 5517 5518 5522 5525 5527 5529 5531 5533 5534 5535 5538 5540 5542 5543 5542 5546
5497 5489 5486 5488 5488 5489 5490 5490 5491 5491 5490 5490 5490 5490 5492 5493 5495 5495 5495 5495 5497 5498 5499 5500 5500 5500 5501 5503 5506 5508 5509 5510 5512 5514 5516 5517 5519 5520 5522 5524 5525 5524 5528
5496 5490 5483 5477 5474 5474 5475 5476 5476 5477 5478 5479 5479 5477 5477 5478 5479 5480 5482 5482 5483 5483 5484 5484 5485 5485 5485 5486 5488 5489 5491 5492 5493 5494 5497 5498 5499 5501 5503 5505 5505 5508 5510
5496 5490 5485 5479 5473 5466 5463 5463 5461 5461 5459 5459 5461 5462 5461 5461 5461 5461 5461 5463 5462 5463 5463 5463 5463 5464 5466 5467 5468 5469 5470 5471 5472 5474 5475 5476 5477 5479 5481 5483 5485 5488 5490
5495 5490 5484 5479 5473 5467 5462 5456 5451 5449 5447 5444 5442 5441 5440 5441 5440 5440 5441 5442 5441 5441 5441 5441 5442 5442 5444 5444 5444 5445 5446 5447 5449 5450 5451 5451 5453 5455 5457 5459 5462 5465 5467
5491 5487 5483 5478 5473 5468 5462 5456 5450 5444 5440 5436 5432 5431 5427 5424 5422 5420 5418 5417 5417 5416 5416 5417 5417 5418 5419 5419 5420 5421 5422 5422 5423 5424 5425 5426 5427 5430 5432 5435 5437 5440 5442
5490 5486 5481 5477 5472 5467 5462 5458 5452 5447 5441 5435 5429 5423 5418 5414 5408 5404 5400 5398 5396 5396 5396 5395 5394 5394 5395 5396 5397 5397 5398 5398 5399 5400 5401 5402 5404 5405 5406 5409 5412 5413 5415
5489 5484 5479 5474 5468 5464 5459 5454 5449 5444 5439 5434 5427 5421 5414 5407 5401 5396 5391 5386 5382 5378 5375 5373 5372 5372 5373 5374 5375 5376 5376 5378 5378 5379 5380 5380 5382 5383 5383 5384 5384 5385 5387
5485 5480 5475 5470 5465 5459 5454 5448 5442 5437 5430 5425 5420 5414 5408 5402 5396 5389 5382 5376 5369 5364 5359 5355 5352 5350 5350 5351 5352 5353 5355 5356 5358 5359 5360 5362 5364 5365 5365 5367 5367 5365 5363
5482 5476 5470 5465 5459 5453 5448 5442 5436 5429 5423 5417 5411 5405 5399 5392 5386 5379 5373 5366 5359 5353 5347 5341 5336 5332 5330 5328 5328 5329 5331 5334 5337 5339 5341 5344 5345 5348 5349 5350 5349 5347 5344
5476 5470 5463 5458 5452 5446 5440 5434 5428 5422 5415 5409 5402 5395 5388 5381 5373 5366 5359 5351 5345 5338 5332 5326 5321 5317 5313 5310 5308 5308 5309 5311 5315 5318 5322 5325 5327 5330 5332 5333 5334 5333 5332
5468 5463 5457 5450 5444 5437 5430 5424 5417 5411 5404 5396 5389 5382 5374 5367 5359 5352 5344 5337 5330 5323 5317 5310 5305 5300 5296 5292 5290 5288 5287 5289 5292 5296 5300 5305 5309 5312 5315 5317 5319 5321 5321
5461 5455 5448 5441 5434 5427 5420 5413 5406 5398 5391 5383 5375 5367 5360 5352 5344 5336 5329 5321 5313 5307 5300 5294 5289 5284 5279 5275 5272 5270 5268 5268 5270 5274 5278 5284 5288 5293 5297 5301 5304 5307 5309